Погода в Горном

Россия / Тульская область     53°23′35″N   38°05′14″E
темп.,
°C
ветер,
м/с
пор.,
м/с
влажн.,
%
обл.,
%
осадки,
мм/ч
давл.,
гПа
погр.,
м
6 марта, сб
сб600:00−10сз238939 0.0 101621
03:00−12сз128919 0.0 101721
06:00−9з229689 0.1 101630
09:00−8сз369594 0.5 1018272
12:00−7ссз5791100 0.1 1018396
15:00−6сз478698 0.1 1017697
18:00−9з348941 0.0 101743
21:00−11з449033 0.0 101882
7 марта, вс
вс700:00−12з479114 0.0 1017103
03:00−12юз510917 0.0 1015191
06:00−10юз7158738 0.0 1012416
09:00−7юз10188569 0.0 1008684
12:00−5юз121891100 0.1 10031039
15:00−2зюз122093100 0.9 9991301
18:00−4сз121789100 2.3 998980
21:00−9зюз348183 2.5 100144
8 марта, пн
пн800:00−8зюз6139131 0.0 1001291
03:00−7зюз8178244 0.0 999589
06:00−7з10159088 0.2 9981023
09:00−11з8148675 0.2 1002642
12:00−7зсз61086100 0.0 1004783
15:00−7зсз7118270 0.1 10061126
18:00−8зсз5128998 0.1 1008452
21:00−11з499580 0.1 1010169
9 марта, вт
вт900:00−13зсз349657 0.1 101263
03:00−14сз349766 0.1 101338
06:00−16ссз239787 0.0 101524
09:00−14ссз249594 0.0 1016140
12:00−11ссз3589100 0.0 1017448
15:00−11ссз4687100 0.0 1018656
18:00−14сз349396 0.0 101944
21:00−16сз449258 0.0 102263
10 марта, ср
ср1000:00−19сз34940 0.0 102336
03:00−21сз23965 0.0 102420
06:00−19зсз129465 0.0 102420
09:00−16юз129582 0.2 1024139
12:00−13вюв3392100 0.5 1024306
15:00−13в4493100 0.9 1023351
18:00−16всв4794100 0.1 1024212
21:00−22всв449160 0.1 102665